Location: Borowce
(50.8255°N, 19.6209°E)
Time: 21:50:52
(UTC+00:00)

Cosmos 2237 Rocket - Pass Details

Date: 19 May 2025
Orbit: 834 x 849 km, 71.0° (Epoch: 16 June)

Event Time Altitude Azimuth Distance (km) Brightness Sun altitude
Rises 23:41:29 0° 331° (NNW) 3,400 6.1 -17.8°
Reaches altitude 10° 23:44:03 10° 338° (NNW) 2,464 5.4 -17.7°
Maximum altitude 23:49:28 45° 51° (NE) 1,129 3.2 -17.5°
Drops below altitude 10° 23:54:53 10° 124° (SE) 2,461 4.5 -17.2°
Sets 23:57:26 0° 131° (SE) 3,394 5.1 -17.1°
